• En España
  • Lista de países
  • Para 7 días
  • Temperatura del agua
  • Mapa Satelital
  • El tiempo en el mapa
  • Informadores
  • user-avatar
    Iniciar sesión

    Tiempo cada hora Lyubec

    Hoy, 25 Septiembre, Martes

    Tiempo Temperatura Precipitaciones Viento Presión Humedad
    00:00 +6°C° 1 mm 4 mps 734 mmHg 94%
    01:00 +6°C° 1 mm 4 mps 734 mmHg 93%
    02:00 +6°C° 1 mm 5 mps 733 mmHg 93%
    03:00 +6°C° 0.7 mm 5 mps 734 mmHg 92%
    04:00 +6°C° 0.7 mm 5 mps 734 mmHg 92%
    05:00 +5°C° 0.7 mm 6 mps 734 mmHg 91%
    06:00 +5°C° 0.3 mm 6 mps 735 mmHg 89%
    07:00 +5°C° 0.3 mm 6 mps 735 mmHg 87%
    08:00 +5°C° 0.3 mm 6 mps 736 mmHg 86%
    09:00 +5°C° 0.1 mm 6 mps 737 mmHg 81%
    10:00 +7°C° 0.1 mm 6 mps 737 mmHg 76%
    11:00 +8°C° 0.1 mm 7 mps 738 mmHg 71%
    12:00 +8°C° 0.1 mm 6 mps 739 mmHg 68%
    13:00 +8°C° 0.1 mm 6 mps 739 mmHg 64%
    14:00 +9°C° 0.1 mm 6 mps 740 mmHg 61%
    15:00 +8°C° 0 mm 6 mps 741 mmHg 64%
    16:00 +7°C° 0 mm 5 mps 742 mmHg 67%
    17:00 +7°C° 0 mm 5 mps 743 mmHg 69%
    18:00 +6°C° 0 mm 5 mps 744 mmHg 71%
    19:00 +5°C° 0 mm 5 mps 744 mmHg 73%
    20:00 +5°C° 0 mm 5 mps 745 mmHg 75%
    21:00 +4°C° 0 mm 4 mps 746 mmHg 76%
    22:00 +4°C° 0 mm 4 mps 746 mmHg 76%
    23:00 +3°C° 0 mm 4 mps 747 mmHg 76%

    Mañana, 26 Septiembre, Miércoles

    Tiempo Temperatura Precipitaciones Viento Presión Humedad
    00:00 +3°C° 0 mm 4 mps 748 mmHg 77%
    01:00 +2°C° 0 mm 3 mps 748 mmHg 77%
    02:00 +1°C° 0 mm 3 mps 749 mmHg 77%
    03:00 +1°C° 0 mm 3 mps 749 mmHg 78%
    04:00 +1°C° 0 mm 3 mps 750 mmHg 79%
    05:00 0°C° 0 mm 3 mps 750 mmHg 80%
    06:00 +2°C° 0 mm 3 mps 750 mmHg 78%
    07:00 +3°C° 0 mm 3 mps 750 mmHg 77%
    08:00 +4°C° 0 mm 4 mps 750 mmHg 75%
    09:00 +6°C° 0 mm 4 mps 750 mmHg 70%
    10:00 +7°C° 0 mm 4 mps 750 mmHg 64%
    11:00 +9°C° 0 mm 5 mps 750 mmHg 59%
    12:00 +10°C° 0 mm 5 mps 749 mmHg 57%
    13:00 +10°C° 0 mm 5 mps 748 mmHg 54%
    14:00 +10°C° 0 mm 6 mps 748 mmHg 52%
    15:00 +9°C° 0 mm 5 mps 747 mmHg 55%
    16:00 +9°C° 0 mm 5 mps 746 mmHg 58%
    17:00 +8°C° 0 mm 5 mps 745 mmHg 61%
    18:00 +7°C° 0.8 mm 6 mps 744 mmHg 69%
    19:00 +6°C° 0.8 mm 7 mps 742 mmHg 78%
    20:00 +5°C° 0.8 mm 7 mps 741 mmHg 86%
    21:00 +5°C° 1.7 mm 7 mps 740 mmHg 87%
    22:00 +5°C° 1.7 mm 7 mps 738 mmHg 88%
    23:00 +5°C° 1.7 mm 8 mps 737 mmHg 89%

    Pasado mañana, 27 Septiembre, Jueves

    Tiempo Temperatura Precipitaciones Viento Presión Humedad
    00:00 +6°C° 1.5 mm 7 mps 736 mmHg 90%
    01:00 +7°C° 1.5 mm 6 mps 735 mmHg 91%
    02:00 +7°C° 1.5 mm 5 mps 735 mmHg 93%
    03:00 +7°C° 0.4 mm 5 mps 735 mmHg 91%
    04:00 +6°C° 0.4 mm 5 mps 735 mmHg 89%
    05:00 +6°C° 0.4 mm 4 mps 734 mmHg 87%
    06:00 +6°C° 0.1 mm 5 mps 735 mmHg 85%
    07:00 +6°C° 0.1 mm 5 mps 735 mmHg 83%
    08:00 +5°C° 0.1 mm 6 mps 735 mmHg 80%
    09:00 +7°C° 0.2 mm 6 mps 736 mmHg 76%
    10:00 +6°C° 0.2 mm 7 mps 736 mmHg 72%
    11:00 +8°C° 0.2 mm 7 mps 736 mmHg 68%
    12:00 +8°C° 0.2 mm 7 mps 736 mmHg 66%
    13:00 +8°C° 0.2 mm 7 mps 736 mmHg 65%
    14:00 +8°C° 0.2 mm 7 mps 737 mmHg 63%
    15:00 +8°C° 0.1 mm 7 mps 737 mmHg 65%
    16:00 +7°C° 0.1 mm 6 mps 737 mmHg 67%
    17:00 +7°C° 0.1 mm 5 mps 738 mmHg 69%
    18:00 +6°C° 0 mm 5 mps 738 mmHg 71%
    19:00 +5°C° 0 mm 5 mps 738 mmHg 74%
    20:00 +5°C° 0 mm 5 mps 739 mmHg 76%
    21:00 +5°C° 0 mm 4 mps 739 mmHg 77%
    22:00 +4°C° 0 mm 4 mps 739 mmHg 78%
    23:00 +4°C° 0 mm 4 mps 740 mmHg 79%

    28 Septiembre, Viernes

    Tiempo Temperatura Precipitaciones Viento Presión Humedad
    00:00 +4°C° 0 mm 4 mps 739 mmHg 82%
    01:00 +3°C° 0 mm 3 mps 739 mmHg 84%
    02:00 +3°C° 0 mm 3 mps 739 mmHg 87%
    03:00 +4°C° 0.4 mm 2 mps 739 mmHg 89%
    04:00 +4°C° 0.4 mm 2 mps 738 mmHg 90%
    05:00 +4°C° 0.4 mm 2 mps 738 mmHg 92%
    06:00 +4°C° 1.1 mm 2 mps 737 mmHg 92%
    07:00 +4°C° 1.1 mm 2 mps 736 mmHg 93%
    08:00 +5°C° 1.1 mm 1 mps 735 mmHg 94%
    09:00 +5°C° 0.6 mm 2 mps 735 mmHg 92%
    10:00 +5°C° 0.6 mm 2 mps 735 mmHg 90%
    11:00 +4°C° 0.6 mm 3 mps 736 mmHg 88%
    12:00 +5°C° 0.2 mm 3 mps 737 mmHg 83%
    13:00 +5°C° 0.2 mm 4 mps 738 mmHg 79%
    14:00 +6°C° 0.2 mm 4 mps 739 mmHg 74%
    15:00 +5°C° 0.1 mm 4 mps 740 mmHg 76%
    16:00 +4°C° 0.1 mm 3 mps 740 mmHg 77%
    17:00 +4°C° 0.1 mm 3 mps 741 mmHg 79%
    18:00 +3°C° 0 mm 3 mps 742 mmHg 80%
    19:00 +2°C° 0 mm 3 mps 742 mmHg 82%
    20:00 +3°C° 0 mm 2 mps 743 mmHg 84%
    21:00 +2°C° 0 mm 2 mps 743 mmHg 85%
    22:00 +2°C° 0 mm 2 mps 744 mmHg 86%
    23:00 +1°C° 0 mm 2 mps 744 mmHg 87%

    29 Septiembre, Sábado

    Tiempo Temperatura Precipitaciones Viento Presión Humedad
    00:00 +1°C° 0.2 mm 2 mps 744 mmHg 87%
    01:00 +2°C° 0.2 mm 2 mps 745 mmHg 87%
    02:00 +3°C° 0.2 mm 1 mps 745 mmHg 88%
    03:00 +3°C° 0.4 mm 1 mps 745 mmHg 89%
    04:00 +3°C° 0.4 mm 1 mps 745 mmHg 89%
    05:00 +3°C° 0.4 mm 1 mps 746 mmHg 90%
    06:00 +4°C° 0.1 mm 1 mps 746 mmHg 86%
    07:00 +3°C° 0.1 mm 2 mps 747 mmHg 83%
    08:00 +3°C° 0.1 mm 2 mps 747 mmHg 79%
    09:00 +4°C° 0 mm 2 mps 748 mmHg 73%
    10:00 +5°C° 0 mm 2 mps 748 mmHg 66%
    11:00 +5°C° 0 mm 3 mps 749 mmHg 59%
    12:00 +5°C° 0 mm 3 mps 749 mmHg 57%
    13:00 +7°C° 0 mm 3 mps 749 mmHg 55%
    14:00 +7°C° 0 mm 3 mps 749 mmHg 53%
    15:00 +5°C° 0 mm 3 mps 750 mmHg 60%
    16:00 +5°C° 0 mm 2 mps 750 mmHg 67%
    17:00 +5°C° 0 mm 1 mps 750 mmHg 74%
    18:00 +4°C° 0 mm 1 mps 750 mmHg 78%
    19:00 +3°C° 0 mm 1 mps 751 mmHg 82%
    20:00 +2°C° 0 mm 2 mps 751 mmHg 86%
    21:00 +1°C° 0 mm 2 mps 751 mmHg 87%
    22:00 +1°C° 0 mm 2 mps 751 mmHg 88%
    23:00 +1°C° 0 mm 2 mps 751 mmHg 89%

    30 Septiembre, Domingo

    Tiempo Temperatura Precipitaciones Viento Presión Humedad
    00:00 +1°C° 0 mm 2 mps 751 mmHg 88%
    01:00 +1°C° 0 mm 2 mps 751 mmHg 88%
    02:00 +1°C° 0 mm 2 mps 752 mmHg 87%
    03:00 0°C° 0 mm 3 mps 751 mmHg 88%
    04:00 0°C° 0 mm 3 mps 751 mmHg 88%
    05:00 0°C° 0 mm 3 mps 751 mmHg 88%
    06:00 +1°C° 0 mm 3 mps 751 mmHg 84%
    07:00 +2°C° 0 mm 3 mps 751 mmHg 81%
    08:00 +3°C° 0 mm 4 mps 751 mmHg 77%
    09:00 +4°C° 0 mm 4 mps 751 mmHg 73%
    10:00 +6°C° 0 mm 4 mps 751 mmHg 68%
    11:00 +7°C° 0 mm 4 mps 751 mmHg 64%
    12:00 +7°C° 0 mm 5 mps 750 mmHg 63%
    13:00 +8°C° 0 mm 5 mps 750 mmHg 61%
    14:00 +8°C° 0 mm 5 mps 749 mmHg 59%
    15:00 +7°C° 0 mm 4 mps 749 mmHg 62%
    16:00 +6°C° 0 mm 4 mps 748 mmHg 65%
    17:00 +5°C° 0 mm 3 mps 748 mmHg 67%
    18:00 +4°C° 0 mm 4 mps 748 mmHg 68%
    19:00 +4°C° 0 mm 4 mps 748 mmHg 68%
    20:00 +3°C° 0 mm 4 mps 748 mmHg 68%
    21:00 +3°C° 0 mm 4 mps 747 mmHg 71%
    22:00 +3°C° 0 mm 4 mps 747 mmHg 73%
    23:00 +3°C° 0 mm 4 mps 747 mmHg 75%
    Mostrar más